Weather History for Wahpeton, ND

Change the Weather History Date:

Thursday, May 9, 2013

  Actual Average (KFFM) Record (KFFM)
Temperature  
Mean Temperature 54 °F -  
Max Temperature 66 °F 64 °F 87 °F (1992)
Min Temperature 42 °F 41 °F 26 °F (1961)
Degree Days  
Heating Degree Days 11    
Growing Degree Days 4 (Base 50)    
Moisture  
Dew Point 40 °F    
Average Humidity 57    
Maximum Humidity 82    
Minimum Humidity 40    
Precipitation  
Precipitation 0.01 in - - ()
Sea Level Pressure  
Sea Level Pressure 30.10 in    
Wind  
Wind Speed 13 mph (NE)    
Max Wind Speed 18 mph    
Max Gust Speed 26 mph    
Visibility 10 miles    
Events      
Averages and records for this station are not official NWS values.
T = Trace of Precipitation, MM = Missing Value Source: NWS Daily Summary

Daily Weather History Graph

Daily Weather History Graph

Search for Another Location

Airport:

Trip Planner

Search our weather history database for the weather conditions in past years. The results will help you decide how hot, cold, wet, or windy it might be!

Date:

Astronomy

May. 09, 2013 Rise Set
Actual Time 6:00 AM CDT 8:45 PM CDT
Civil Twilight 5:26 AM CDT 9:20 PM CDT
Nautical Twilight 4:42 AM CDT 10:04 PM CDT
Astronomical Twilight 3:51 AM CDT 10:55 PM CDT
Moon 5:47 AM CDT (5/9) 8:41 PM CDT (5/9)
Length of Visible Light 15h 54m
Length of Day
14h 44m
Waning Crescent, 0% of the Moon is Illuminated
May 9
Waning Crescent
May 9
New
May 17
First Quarter
May 24
Full
May 31
Last Quarter

Hourly Weather History & Observations

Time (CDT) Temp. Windchill Dew Point Humidity Pressure Visibility Wind Dir Wind Speed Gust Speed Precip Events Conditions
12:15 AM 55.4 °F - 46.4 °F 72% 30.05 in 10.0 mi North 8.1 mph - N/A   Mostly Cloudy
1:15 AM 51.8 °F - 44.6 °F 76% 30.05 in 10.0 mi North 5.8 mph - N/A   Clear
2:55 AM 48.2 °F - 42.8 °F 82% 30.06 in 10.0 mi North 12.7 mph - N/A   Clear
3:15 AM 46.4 °F 40.4 °F 41.0 °F 81% 30.05 in 10.0 mi North 13.8 mph - 0.01 in   Clear
4:15 AM 44.6 °F 37.8 °F 37.4 °F 76% 30.06 in 10.0 mi North 15.0 mph 20.7 mph N/A   Clear
4:35 AM 44.6 °F 38.1 °F 37.4 °F 76% 30.06 in 10.0 mi North 13.8 mph - N/A   Clear
4:55 AM 44.6 °F 37.8 °F 35.6 °F 71% 30.06 in 10.0 mi North 15.0 mph - N/A   Clear
5:35 AM 42.8 °F 35.8 °F 35.6 °F 76% 30.08 in 10.0 mi North 13.8 mph - N/A   Clear
6:15 AM 42.8 °F 36.2 °F 33.8 °F 70% 30.09 in 10.0 mi North 12.7 mph - N/A   Clear
6:55 AM 42.8 °F 36.2 °F 33.8 °F 70% 30.10 in 10.0 mi North 12.7 mph 20.7 mph N/A   Clear
7:35 AM 44.6 °F 38.1 °F 33.8 °F 66% 30.11 in 10.0 mi North 13.8 mph 19.6 mph N/A   Clear
8:15 AM 46.4 °F 39.5 °F 35.6 °F 66% 30.11 in 10.0 mi North 17.3 mph - N/A   Clear
9:55 AM 53.6 °F - 37.4 °F 54% 30.12 in 10.0 mi NNE 18.4 mph 24.2 mph N/A   Clear
10:15 AM 55.4 °F - 39.2 °F 54% 30.12 in 10.0 mi NNE 17.3 mph 25.3 mph N/A   Clear
10:35 AM 55.4 °F - 39.2 °F 54% 30.12 in 10.0 mi NNE 17.3 mph 24.2 mph N/A   Clear
10:55 AM 55.4 °F - 39.2 °F 54% 30.13 in 10.0 mi North 18.4 mph 23.0 mph N/A   Clear
11:15 AM 59.0 °F - 39.2 °F 48% 30.13 in 10.0 mi NNE 15.0 mph 24.2 mph N/A   Clear
11:35 AM 59.0 °F - 39.2 °F 48% 30.12 in 10.0 mi NNE 18.4 mph 25.3 mph N/A   Clear
11:55 AM 59.0 °F - 39.2 °F 48% 30.12 in 10.0 mi NNE 17.3 mph 25.3 mph N/A   Clear
12:15 PM 60.8 °F - 41.0 °F 48% 30.11 in 10.0 mi NNE 17.3 mph - N/A   Clear
12:35 PM 60.8 °F - 39.2 °F 45% 30.11 in 10.0 mi NNE 15.0 mph 21.9 mph N/A   Clear
12:55 PM 62.6 °F - 39.2 °F 42% 30.11 in 10.0 mi North 18.4 mph 26.5 mph N/A   Clear
1:15 PM 62.6 °F - 39.2 °F 42% 30.10 in 10.0 mi North 13.8 mph - N/A   Clear
1:35 PM 64.4 °F - 41.0 °F 42% 30.10 in 10.0 mi North 15.0 mph 24.2 mph N/A   Clear
1:55 PM 64.4 °F - 39.2 °F 40% 30.09 in 10.0 mi North 17.3 mph 25.3 mph N/A   Clear
2:15 PM 66.2 °F - 41.0 °F 40% 30.09 in 10.0 mi NNE 13.8 mph 25.3 mph N/A   Clear
3:15 PM 66.2 °F - 41.0 °F 40% 30.09 in 10.0 mi NE 11.5 mph 19.6 mph N/A   Scattered Clouds
3:35 PM 66.2 °F - 41.0 °F 40% 30.08 in 10.0 mi NNE 15.0 mph 19.6 mph N/A   Scattered Clouds
3:55 PM 64.4 °F - 41.0 °F 42% 30.08 in 10.0 mi NE 10.4 mph 17.3 mph N/A   Scattered Clouds
4:15 PM 64.4 °F - 41.0 °F 42% 30.08 in 10.0 mi NE 13.8 mph 20.7 mph N/A   Mostly Cloudy
4:35 PM 64.4 °F - 42.8 °F 45% 30.08 in 10.0 mi ENE 12.7 mph 18.4 mph N/A   Mostly Cloudy
4:55 PM 64.4 °F - 42.8 °F 45% 30.08 in 10.0 mi East 13.8 mph 18.4 mph N/A   Mostly Cloudy
5:15 PM 64.4 °F - 42.8 °F 45% 30.08 in 10.0 mi East 13.8 mph 18.4 mph N/A   Mostly Cloudy
5:35 PM 64.4 °F - 42.8 °F 45% 30.08 in 10.0 mi East 13.8 mph 18.4 mph N/A   Scattered Clouds
5:55 PM 62.6 °F - 41.0 °F 45% 30.08 in 10.0 mi East 16.1 mph 23.0 mph N/A   Clear
6:15 PM 60.8 °F - 41.0 °F 48% 30.08 in 10.0 mi East 15.0 mph 20.7 mph N/A   Clear
6:35 PM 62.6 °F - 39.2 °F 42% 30.08 in 10.0 mi East 16.1 mph 20.7 mph N/A   Clear
6:55 PM 60.8 °F - 41.0 °F 48% 30.09 in 10.0 mi ESE 12.7 mph - N/A   Clear
7:35 PM 59.0 °F - 41.0 °F 51% 30.09 in 10.0 mi East 11.5 mph - N/A   Clear
7:55 PM 59.0 °F - 41.0 °F 51% 30.10 in 10.0 mi ESE 12.7 mph - N/A   Clear
8:15 PM 57.2 °F - 41.0 °F 55% 30.11 in 10.0 mi ESE 10.4 mph - N/A   Clear
8:35 PM 55.4 °F - 41.0 °F 58% 30.12 in 10.0 mi ESE 10.4 mph - N/A   Clear
8:55 PM 53.6 °F - 41.0 °F 62% 30.12 in 10.0 mi ESE 10.4 mph - N/A   Clear
9:15 PM 53.6 °F - 41.0 °F 62% 30.13 in 10.0 mi ESE 10.4 mph - N/A   Clear
9:35 PM 51.8 °F - 41.0 °F 67% 30.14 in 10.0 mi ESE 10.4 mph - N/A   Clear
9:55 PM 51.8 °F - 41.0 °F 67% 30.15 in 10.0 mi East 8.1 mph - N/A   Clear
10:15 PM 50.0 °F - 41.0 °F 71% 30.15 in 10.0 mi ESE 8.1 mph - N/A   Clear
10:35 PM 50.0 °F - 41.0 °F 71% 30.15 in 10.0 mi ESE 8.1 mph - N/A   Clear
10:55 PM 50.0 °F - 39.2 °F 66% 30.16 in 10.0 mi ESE 6.9 mph - N/A   Clear
11:15 PM 48.2 °F - 39.2 °F 71% 30.16 in 10.0 mi ESE 5.8 mph - N/A   Clear
11:35 PM 48.2 °F - 39.2 °F 71% 30.16 in 10.0 mi ESE 3.5 mph - N/A   Clear
11:55 PM 48.2 °F - 39.2 °F 71% 30.17 in 10.0 mi Calm Calm - N/A   Clear